TimePST,TemperatureF,Dew PointF,Humidity,Sea Level PressureIn,VisibilityMPH,Wind Direction,Wind SpeedMPH,Gust SpeedMPH,PrecipitationIn,Events,Conditions,WindDirDegrees,DateUTC
12:10 AM,52.0,52.0,100,30.10,1.8,Calm,Calm,-,N/A,,Overcast,0,2013-11-07 08:10:00
12:31 AM,52.0,52.0,100,30.08,2.0,ESE,3.5,-,N/A,,Overcast,110,2013-11-07 08:31:00
12:38 AM,52.0,52.0,100,30.08,2.5,ESE,4.6,-,N/A,,Overcast,120,2013-11-07 08:38:00
12:44 AM,52.0,52.0,100,30.08,1.8,Calm,Calm,-,N/A,,Overcast,0,2013-11-07 08:44:00
12:53 AM,52.0,52.0,100,30.08,2.0,Calm,Calm,-,N/A,,Overcast,0,2013-11-07 08:53:00
1:05 AM,52.0,52.0,100,30.07,3.0,Calm,Calm,-,N/A,,Overcast,0,2013-11-07 09:05:00
1:12 AM,52.0,52.0,100,30.07,1.8,SSE,3.5,-,N/A,,Overcast,160,2013-11-07 09:12:00
1:27 AM,52.0,52.0,100,30.06,0.8,South,4.6,-,0.00,Rain,Light Rain,170,2013-11-07 09:27:00
1:34 AM,52.0,52.0,100,30.06,1.0,South,4.6,-,0.00,,Mist,170,2013-11-07 09:34:00
1:53 AM,52.0,52.0,100,30.06,1.8,SSE,4.6,-,0.02,Rain,Light Rain,160,2013-11-07 09:53:00
2:01 AM,52.0,52.0,100,30.05,2.5,SSE,4.6,-,0.00,Rain,Light Rain,160,2013-11-07 10:01:00
2:09 AM,52.0,52.0,100,30.05,4.0,SSE,4.6,-,0.00,,Overcast,160,2013-11-07 10:09:00
2:53 AM,52.0,52.0,100,30.02,7.0,SSE,4.6,-,0.01,Rain,Light Rain,160,2013-11-07 10:53:00
3:33 AM,54.0,54.0,100,30.01,8.0,SW,6.9,-,0.00,,Overcast,220,2013-11-07 11:33:00
3:53 AM,55.0,54.0,96,29.99,10.0,SSW,9.2,-,0.00,,Overcast,200,2013-11-07 11:53:00
4:25 AM,55.0,54.0,96,29.99,10.0,South,8.1,-,N/A,,Overcast,190,2013-11-07 12:25:00
4:38 AM,55.0,54.0,96,29.98,10.0,South,9.2,-,N/A,,Overcast,180,2013-11-07 12:38:00
4:53 AM,55.0,54.0,96,29.98,10.0,South,10.4,-,N/A,,Overcast,190,2013-11-07 12:53:00
5:14 AM,55.0,54.0,96,29.97,10.0,South,11.5,-,0.00,Rain,Light Rain,190,2013-11-07 13:14:00
5:33 AM,55.9,54.0,93,29.96,10.0,South,11.5,-,0.00,,Overcast,190,2013-11-07 13:33:00
5:53 AM,55.9,54.0,93,29.96,9.0,SSW,10.4,19.6,0.00,,Overcast,210,2013-11-07 13:53:00
6:15 AM,55.0,54.0,96,29.93,9.0,South,15.0,-,N/A,,Overcast,180,2013-11-07 14:15:00
6:39 AM,55.9,54.0,93,29.93,10.0,South,12.7,20.7,N/A,,Overcast,190,2013-11-07 14:39:00
6:53 AM,55.0,54.0,96,29.93,10.0,South,13.8,25.3,0.00,Rain,Light Rain,190,2013-11-07 14:53:00
7:04 AM,55.0,54.0,96,29.91,10.0,South,11.5,24.2,0.01,Rain,Light Rain,190,2013-11-07 15:04:00
7:12 AM,55.9,54.0,93,29.92,10.0,SSW,10.4,-,0.01,,Overcast,200,2013-11-07 15:12:00
7:53 AM,55.9,53.1,90,29.90,10.0,South,18.4,24.2,0.01,,Overcast,190,2013-11-07 15:53:00
8:09 AM,55.9,53.1,90,29.90,10.0,South,16.1,24.2,0.00,Rain,Light Rain,190,2013-11-07 16:09:00
8:26 AM,55.0,53.1,93,29.92,1.8,WSW,21.9,43.7,0.09,Rain,Heavy Rain,240,2013-11-07 16:26:00
8:33 AM,50.0,46.9,89,29.95,2.0,West,13.8,43.7,0.11,Rain,Rain,260,2013-11-07 16:33:00
8:41 AM,48.9,46.9,93,29.95,3.0,WSW,11.5,23.0,0.13,Rain,Rain,250,2013-11-07 16:41:00
8:53 AM,48.9,46.9,93,29.96,4.0,WSW,10.4,17.3,0.17,Rain,Rain,250,2013-11-07 16:53:00
9:53 AM,48.0,46.9,96,29.98,5.0,South,10.4,-,0.10,Rain,Rain,190,2013-11-07 17:53:00
10:12 AM,48.0,46.9,96,29.97,7.0,South,12.7,-,0.03,Rain,Rain,180,2013-11-07 18:12:00
10:28 AM,48.0,46.9,96,29.98,10.0,South,10.4,-,0.03,,Overcast,190,2013-11-07 18:28:00
10:44 AM,48.0,46.9,96,29.98,10.0,South,10.4,-,0.04,,Overcast,180,2013-11-07 18:44:00
10:53 AM,48.9,46.9,93,29.99,10.0,South,11.5,-,0.04,,Overcast,190,2013-11-07 18:53:00
11:11 AM,48.9,48.0,97,29.98,10.0,Variable,5.8,-,N/A,,Overcast,0,2013-11-07 19:11:00
11:21 AM,48.9,48.0,97,29.99,10.0,South,8.1,-,N/A,,Overcast,190,2013-11-07 19:21:00
11:31 AM,51.1,48.9,92,29.99,10.0,South,11.5,-,N/A,,Overcast,180,2013-11-07 19:31:00
11:53 AM,51.1,48.0,89,29.99,10.0,South,10.4,-,N/A,,Overcast,190,2013-11-07 19:53:00
12:27 PM,50.0,48.9,96,29.99,2.0,South,11.5,-,0.04,Rain,Rain,180,2013-11-07 20:27:00
12:41 PM,50.0,48.9,96,29.99,1.2,Variable,4.6,-,0.14,Rain,Heavy Rain,0,2013-11-07 20:41:00
12:48 PM,50.0,50.0,100,29.99,4.0,South,8.1,-,0.14,Rain,Light Rain,180,2013-11-07 20:48:00
12:53 PM,51.1,50.0,96,29.99,10.0,SSW,6.9,-,0.14,,Overcast,200,2013-11-07 20:53:00
1:53 PM,52.0,48.9,89,30.00,5.0,Variable,6.9,17.3,0.01,Rain,Light Rain,0,2013-11-07 21:53:00
2:19 PM,53.1,48.9,86,30.00,10.0,SSW,11.5,18.4,0.01,,Scattered Clouds,200,2013-11-07 22:19:00
2:53 PM,54.0,48.0,80,30.01,10.0,SSW,10.4,23.0,0.01,,Mostly Cloudy,210,2013-11-07 22:53:00
3:53 PM,50.0,45.0,83,30.03,10.0,SSW,9.2,-,0.01,,Scattered Clouds,200,2013-11-07 23:53:00
4:53 PM,51.1,46.0,83,30.05,10.0,SSW,8.1,17.3,N/A,,Overcast,210,2013-11-08 00:53:00
5:53 PM,51.1,45.0,80,30.06,10.0,South,10.4,-,N/A,,Overcast,190,2013-11-08 01:53:00
6:53 PM,50.0,46.0,86,30.10,10.0,SSW,10.4,-,0.01,Rain,Light Rain,200,2013-11-08 02:53:00
7:53 PM,48.9,45.0,86,30.10,10.0,SSW,9.2,-,0.00,,Overcast,200,2013-11-08 03:53:00
8:53 PM,48.9,46.0,90,30.12,10.0,South,9.2,-,0.00,,Overcast,190,2013-11-08 04:53:00
9:04 PM,48.0,46.0,93,30.12,10.0,South,9.2,-,N/A,,Overcast,190,2013-11-08 05:04:00
9:25 PM,48.0,46.0,93,30.12,10.0,SSW,5.8,-,N/A,,Overcast,200,2013-11-08 05:25:00
9:53 PM,48.0,46.0,93,30.12,10.0,SSW,8.1,-,N/A,,Overcast,200,2013-11-08 05:53:00
10:53 PM,48.0,45.0,89,30.14,10.0,South,6.9,-,N/A,,Overcast,190,2013-11-08 06:53:00
11:53 PM,48.0,45.0,89,30.15,10.0,SW,5.8,-,N/A,,Mostly Cloudy,220,2013-11-08 07:53:00